Terug naar catalogus

YZ-1 R/B

ActiefMEO
NORAD 44544·ROCKET BODY·🇨🇳 China

Gelanceerd Sep 22, 2019 vanaf Xichang Satellite Launch Center

Loading…

Volgende Passages (komende 24 uur)

TLE

VersSource: Space-Track

Epoch: Sep 14, 2026, 06:33 UTC

1 44544U 19061C   26257.27357099  .00000011  00000-0  00000-0 0  9994
2 44544  54.4341 185.7160 0034722 257.5425 102.0708  1.80432533 45994

Volg YZ-1 R/B in realtime met AllMySat

Download on the App Store